{"data":{"norad_id":57409,"epoch":"2026-05-25T01:52:25.084704Z","epoch_age_seconds":68010,"freshness":"FRESH","line1":"1 57409U 23102F   26145.07806811  .00001199  00000+0  53107-4 0  9991","line2":"2 57409  43.0041 177.0885 0001738 280.8297  79.2359 15.27573404157927","mean_motion":15.27573404,"eccentricity":0.0001738,"inclination_deg":43.0041,"raan_deg":177.0885,"arg_perigee_deg":280.8297,"mean_anomaly_deg":79.2359,"bstar":5.3107e-5,"rev_number":15792,"period_min":94.267155753649,"perigee_km":481.87636933143,"apogee_km":484.26132448381,"semimajor_km":6861.2058469076,"source":"CELESTRAK","updated_at":"2026-05-25T13:38:18.298353Z"}}